Flag for Guadeloupe

Past Weather in Basse-Terre, Guadeloupe — Yesterday and Last 2 Weeks

Now
79 °F

Passing clouds.


Feels Like: 82 °F
Forecast: 85 / 78 °F
Wind: 7 mph from East

Location: Le Raizet - Guadeloupe

Current Time: Jul 10, 2020 at 5:56:29 am

Latest Report: Jul 10, 2020 at 5:00 am


Visibility: N/A

Pressure: 30.01 "Hg

Humidity: 84%

Dew Point: 73 °F

Location of Basse-TerreLocation

Past Weather in Basse-Terre — Graph

°F

Basse-Terre Temperature Yesterday

Maximum temperature yesterday: 88 °F (at 9:30 am)
Minimum temperature yesterday: 75 °F (at 1:30 am)
Average temperature yesterday: 82 °F

High & Low Weather Summary for the Past Weeks

 TemperatureHumidityPressure
High90 °F (Jun 25, 10:30 am)100% (Jul 2, 4:00 am)30.04 "Hg (Jul 2, 4:00 am)
Low73 °F (Jul 7, 12:30 pm)52% (Jun 25, 10:30 am)29.92 "Hg (Jun 27, 3:30 pm)
Average82 °F77%29.97 "Hg
* Reported Jun 25 4:00 am — Jul 10 4:30 am, Basse-Terre. Weather by CustomWeather, © 2020

Note: Actual official high and low records may vary slightly from our data, if they occured in-between our weather recording intervals... More about our weather records

Basse-Terre Weather History for the Previous 24 Hours

Scroll right to see more
 ConditionsComfort  
Time TempWeatherWind HumidityBarometerVisibility
4:30 am
Fri, Jul 10
79 °FPartly cloudy.7 mph89%30.01 "HgN/A
4:00 am79 °FPassing clouds.3 mph89%30.01 "HgN/A
3:30 am79 °FPassing clouds.5 mph84%30.01 "HgN/A
3:00 am79 °FClear.8 mph89%29.98 "Hg10 mi
2:30 am79 °FClear.8 mph89%29.98 "Hg10 mi
2:00 am79 °FPartly cloudy.8 mph84%29.98 "HgN/A
1:30 am79 °FPartly cloudy.9 mph84%30.01 "HgN/A
1:00 am79 °FClear.5 mph84%30.01 "Hg10 mi
12:30 am79 °FClear.6 mph84%30.01 "Hg10 mi
12:00 am79 °FClear.7 mph84%30.01 "Hg10 mi
11:30 pm
Thu, Jul 9
79 °FPassing clouds.7 mph84%30.01 "HgN/A
11:00 pm79 °FClear.3 mph84%30.01 "Hg10 mi
10:30 pm79 °FClear.5 mph84%30.01 "Hg10 mi
10:00 pm79 °FPassing clouds.6 mph84%30.01 "HgN/A
9:30 pm81 °FClear.6 mph74%30.01 "Hg10 mi
9:00 pm81 °FClear.6 mph74%30.01 "Hg10 mi
8:30 pm81 °FPassing clouds.5 mph79%29.98 "HgN/A
8:00 pm81 °FClear.7 mph79%29.98 "Hg10 mi
7:30 pm82 °FPassing clouds.8 mph74%29.98 "HgN/A
7:00 pm82 °FPassing clouds.9 mph74%29.98 "HgN/A
6:30 pm84 °FScattered clouds.9 mph70%29.98 "HgN/A
6:00 pm84 °FPartly sunny.12 mph66%29.98 "HgN/A
5:30 pm86 °FBroken clouds.10 mph62%29.98 "HgN/A
5:00 pm86 °FPassing clouds.15 mph62%29.98 "HgN/A
4:30 pm86 °FPartly sunny.14 mph62%29.95 "HgN/A
4:00 pm86 °FPartly sunny.14 mph62%29.95 "HgN/A
3:30 pm88 °FPartly sunny.12 mph59%29.95 "HgN/A
3:00 pm88 °FScattered clouds.15 mph59%29.98 "HgN/A
2:30 pm88 °FPassing clouds.16 mph59%29.98 "HgN/A
2:00 pm88 °FPassing clouds.16 mph59%29.98 "HgN/A
1:30 pm88 °FPassing clouds.16 mph59%29.98 "HgN/A
1:00 pm88 °FSunny.18 mph59%30.01 "Hg10 mi
12:30 pm88 °FScattered clouds.17 mph59%30.01 "HgN/A
12:00 pm88 °FScattered clouds.16 mph55%30.01 "HgN/A
11:30 am88 °FBroken clouds.20 mph59%30.01 "HgN/A
11:00 am88 °FBroken clouds.14 mph66%30.04 "HgN/A
10:30 am84 °FMostly cloudy.14 mph70%30.04 "HgN/A
10:00 am88 °FPartly sunny.12 mph59%30.01 "HgN/A
9:30 am88 °FBroken clouds.15 mph62%30.04 "HgN/A
9:00 am86 °FPartly sunny.13 mph62%30.01 "HgN/A
8:00 am84 °FWarm.12 mph66%30.01 "HgN/A
7:30 am82 °FWarm.7 mph74%30.01 "HgN/A
7:00 am81 °FPartly sunny.5 mph79%30.01 "HgN/A
6:30 am77 °FBroken clouds.3 mph89%30.01 "Hg6 mi
6:00 am75 °FPassing clouds.No wind94%29.98 "HgN/A
5:30 am75 °FMild.2 mph94%29.98 "Hg5 mi
5:00 am75 °FPassing clouds.2 mph94%29.98 "Hg6 mi
Weather by CustomWeather, © 2020

See weather overview